Weather reports worldwide

Advertisment
Ciudad Victoria, Mexico (76491): temperature & dewpoint: 12.01.2018 23:00:00 - 18.01.2018 23:00:00 (CST)Ciudad Victoria, Mexico (76491): wind speed: 12.01.2018 23:00:00 - 18.01.2018 23:00:00 (CST)Ciudad Victoria, Mexico (76491): wind direction: 12.01.2018 23:00:00 - 18.01.2018 23:00:00 (CST)Ciudad Victoria, Mexico (76491): reduced air pressure: 12.01.2018 23:00:00 - 18.01.2018 23:00:00 (CST)Ciudad Victoria, Mexico (76491): visibility: 12.01.2018 23:00:00 - 18.01.2018 23:00:00 (CST)
Date & Time tt [°C] td [°C] ff [km/h] ff [kn] dd ppp [hPa] vv [km]
18.01.2018 23:00:00 - - - - - - -
18.01.2018 22:00:00 - - - - - - -
18.01.2018 21:00:00 5,4 5,2 4 2 N 1030,6 6
18.01.2018 20:00:00 - - - - - - -
18.01.2018 19:00:00 - - - - - - -
18.01.2018 18:00:00 6,4 6,2 4 2 N 1029,7 8
18.01.2018 17:00:00 - - - - - - -
18.01.2018 16:00:00 - - - - - - -
18.01.2018 15:00:00 6,8 6,6 4 2 N 1030,2 8
18.01.2018 14:00:00 - - - - - - -
18.01.2018 13:00:00 - - - - - - -
18.01.2018 12:00:00 6,0 3,2 0 0 N 1034,2 8
18.01.2018 11:00:00 - - - - - - -
18.01.2018 10:00:00 - - - - - - -
18.01.2018 09:00:00 - - - - - - -
18.01.2018 08:00:00 - - - - - - -
18.01.2018 07:00:00 - - - - - - -
18.01.2018 06:00:00 2,8 0,9 4 2 N 1034,2 6
18.01.2018 05:00:00 - - - - - - -
18.01.2018 04:00:00 - - - - - - -
18.01.2018 03:00:00 2,8 0,9 4 2 N 1036,3 6
18.01.2018 02:00:00 - - - - - - -
18.01.2018 01:00:00 - - - - - - -
18.01.2018 00:00:00 3,2 0,5 4 2 N 1038,4 6
17.01.2018 23:00:00 - - - - - - -
17.01.2018 22:00:00 - - - - - - -
17.01.2018 21:00:00 3,8 0,0 4 2 N 1038,5 6
17.01.2018 20:00:00 - - - - - - -
17.01.2018 19:00:00 - - - - - - -
17.01.2018 18:00:00 3,6 1,5 4 2 N 1037,7 10
17.01.2018 17:00:00 - - - - - - -
17.01.2018 16:00:00 - - - - - - -
17.01.2018 15:00:00 4,1 0,3 11 6 N 1038,2 10
17.01.2018 14:00:00 - - - - - - -
17.01.2018 13:00:00 - - - - - - -
17.01.2018 12:00:00 1,6 0,6 14 8 N 1041,6 10
17.01.2018 11:00:00 - - - - - - -
17.01.2018 10:00:00 - - - - - - -
17.01.2018 09:00:00 0,0 -0,2 22 12 N 1042,4 10
17.01.2018 08:00:00 - - - - - - -
17.01.2018 07:00:00 - - - - - - -
17.01.2018 06:00:00 0,2 0,0 18 10 N 1040,1 6
17.01.2018 05:00:00 - - - - - - -
17.01.2018 04:00:00 - - - - - - -
17.01.2018 03:00:00 0,6 0,4 14 8 N 1039,9 6
17.01.2018 02:00:00 - - - - - - -
17.01.2018 01:00:00 - - - - - - -
17.01.2018 00:00:00 1,2 1,0 25 14 N 1040,5 6
16.01.2018 23:00:00 - - - - - - -
16.01.2018 22:00:00 - - - - - - -
16.01.2018 21:00:00 2,2 2,0 32 18 N 1038,9 6
16.01.2018 20:00:00 - - - - - - -
16.01.2018 19:00:00 - - - - - - -
16.01.2018 18:00:00 - - - - - - -
16.01.2018 17:00:00 - - - - - - -
16.01.2018 16:00:00 - - - - - - -
16.01.2018 15:00:00 - - - - - - -
16.01.2018 14:00:00 - - - - - - -
16.01.2018 13:00:00 - - - - - - -
16.01.2018 12:00:00 13,6 10,3 54 29 N 1031,9 10
16.01.2018 11:00:00 - - - - - - -
16.01.2018 10:00:00 - - - - - - -
16.01.2018 09:00:00 13,0 12,5 4 2 SSW 1031,1 10
16.01.2018 08:00:00 - - - - - - -
16.01.2018 07:00:00 - - - - - - -
16.01.2018 06:00:00 9,2 9,0 0 0 N 1027,2 6
16.01.2018 05:00:00 - - - - - - -
16.01.2018 04:00:00 - - - - - - -
16.01.2018 03:00:00 10,8 10,6 4 2 WSW 1023,6 6
16.01.2018 02:00:00 - - - - - - -
16.01.2018 01:00:00 - - - - - - -
16.01.2018 00:00:00 11,2 10,7 4 2 W 1023,2 6
15.01.2018 23:00:00 - - - - - - -
15.01.2018 22:00:00 - - - - - - -
15.01.2018 21:00:00 15,8 8,1 4 2 S 1021,9 6
15.01.2018 20:00:00 - - - - - - -
15.01.2018 19:00:00 - - - - - - -
15.01.2018 18:00:00 - - - - - - -
15.01.2018 17:00:00 - - - - - - -
15.01.2018 16:00:00 - - - - - - -
15.01.2018 15:00:00 - - - - - - -
15.01.2018 14:00:00 - - - - - - -
15.01.2018 13:00:00 - - - - - - -
15.01.2018 12:00:00 22,2 6,5 11 6 S 1025,8 10
15.01.2018 11:00:00 - - - - - - -
15.01.2018 10:00:00 - - - - - - -
15.01.2018 09:00:00 11,2 11,0 4 2 N 1028,1 10
15.01.2018 08:00:00 - - - - - - -
15.01.2018 07:00:00 - - - - - - -
15.01.2018 06:00:00 - - - - - - -
15.01.2018 05:00:00 - - - - - - -
15.01.2018 04:00:00 - - - - - - -
15.01.2018 03:00:00 - - - - - - -
15.01.2018 02:00:00 - - - - - - -
15.01.2018 01:00:00 - - - - - - -
15.01.2018 00:00:00 - - - - - - -
14.01.2018 23:00:00 - - - - - - -
14.01.2018 22:00:00 - - - - - - -
14.01.2018 21:00:00 - - - - - - -
14.01.2018 20:00:00 - - - - - - -
14.01.2018 19:00:00 - - - - - - -
14.01.2018 18:00:00 22,2 7,9 7 4 E 1026,2 10
14.01.2018 17:00:00 - - - - - - -
14.01.2018 16:00:00 - - - - - - -
14.01.2018 15:00:00 24,3 7,9 18 10 N 1027,2 10
14.01.2018 14:00:00 - - - - - - -
14.01.2018 13:00:00 - - - - - - -
14.01.2018 12:00:00 17,8 9,5 4 2 N 1032,6 10
14.01.2018 11:00:00 - - - - - - -
14.01.2018 10:00:00 - - - - - - -
14.01.2018 09:00:00 8,0 7,8 0 0 N 1034,1 10
14.01.2018 08:00:00 - - - - - - -
14.01.2018 07:00:00 - - - - - - -
14.01.2018 06:00:00 - - - - - - -
14.01.2018 05:00:00 - - - - - - -
14.01.2018 04:00:00 - - - - - - -
14.01.2018 03:00:00 - - - - - - -
14.01.2018 02:00:00 - - - - - - -
14.01.2018 01:00:00 - - - - - - -
14.01.2018 00:00:00 - - - - - - -
13.01.2018 23:00:00 - - - - - - -
13.01.2018 22:00:00 - - - - - - -
13.01.2018 21:00:00 - - - - - - -
13.01.2018 20:00:00 - - - - - - -
13.01.2018 19:00:00 - - - - - - -
13.01.2018 18:00:00 18,6 1,5 4 2 N 1032,8 10
13.01.2018 17:00:00 - - - - - - -
13.01.2018 16:00:00 - - - - - - -
13.01.2018 15:00:00 20,6 1,0 7 4 N 1033,1 10
13.01.2018 14:00:00 - - - - - - -
13.01.2018 13:00:00 - - - - - - -
13.01.2018 12:00:00 17,4 2,5 4 2 N 1036,2 10
13.01.2018 11:00:00 - - - - - - -
13.01.2018 10:00:00 - - - - - - -
13.01.2018 09:00:00 7,4 4,3 0 0 N 1035,5 10
13.01.2018 08:00:00 - - - - - - -
13.01.2018 07:00:00 - - - - - - -
13.01.2018 06:00:00 5,8 3,2 0 0 N 1031,3 6
13.01.2018 05:00:00 - - - - - - -
13.01.2018 04:00:00 - - - - - - -
13.01.2018 03:00:00 5,0 2,1 4 2 WSW 1027,9 6
13.01.2018 02:00:00 - - - - - - -
13.01.2018 01:00:00 - - - - - - -
13.01.2018 00:00:00 6,8 2,0 4 2 SSW 1026,8 6
12.01.2018 23:00:00 - - - - - - -

tt = temperature
td = dewpoint
ff = wind speed
dd = wind direction
ppp = reduced air pressure
vv = visibility

Next stations